Location: Unspecified
(0.0000°N, 0.0000°E)
Time: 18:58:02
(UTC+00:00)

Courier 1B Rocket - Pass Details

Date: 25 November 2019
Orbit: 920 x 1202 km, 28.2° (Epoch: 08 December)

Event Time Altitude Azimuth Distance (km) Brightness Sun altitude
Rises 08:14:46 0° 238° (WSW) 3,606 7.7 34.2°
Reaches altitude 10° 08:17:25 10° 238° (WSW) 2,637 7.1 34.8°
Maximum altitude 08:23:44 83° 150° (SSE) 926 5.7 36.3°
Drops below altitude 10° 08:29:59 10° 62° (ENE) 2,610 7.8 37.7°
Sets 08:32:36 0° 61° (ENE) 3,567 8.3 38.2°
